BREEZE-M DEB

基本信息
目录编号:
48534
目录名称:
BREEZE-M DEB
国际标识:
2008-011DZ
轨道中心:
EARTH
物体状态:
在轨
发射日期:
2008-03-14 UTC
轨道信息
数据来源: 国际轨道数据
星历时间: 2025-08-19T07:34:17+0800
半长轴: 20243.675km
偏心率: 0.6423302
轨道倾角: 48.399°
近地点辐角: 229.790°
升交点赤经: 67.935°
平近点角: 53.618°
近地点: 862.416km
远地点: 26868.664km
周期: 477.742分钟
每日圈数: 3.014177
详细信息
发射场:
TTMTR
轨道高度:
LEO
数据来源:
AOE Integration Group
参考系:
TEME
时间系统:
UTC
历元类型:
SGP4
2D轨道图
3D轨道图
轨道高度分析图
轨道倾角分析图
轨道综合分析图
查看轨道综合分析图